Wind_Gust
15 14 14 16 15 15 15 14 13 13 14 12 13 13 12 12 10 11 11 12 12 12 12 12 11 11 11 11 9 10 12 11 11 12 13 13 13 13 13 12 10 11
13 13 13 14 14 14 14 14 13 12 13 11 13 13 13 12 11 11 13 13 13 13 12 12 11 11 10 11 10 10 12 11 11 11 11 11 11 12 12 11 11 11
14 12 13 13 14 14 15 15 14 13 13 12 13 13 14 13 12 12 13 13 14 13 13 12 11 10 10 10 9 10 12 11 10 10 10 11 10 11 11 11 12 11
16 14 14 14 14 16 15 15 14 14 13 14 14 14 15 13 13 14 14 13 14 14 13 13 12 11 11 11 10 11 11 11 11 10 11 11 10 11 11 11 12 13
17 16 13 14 14 15 16 15 15 14 14 14 14 15 16 15 15 15 14 14 14 14 14 14 13 13 12 12 11 13 13 13 11 11 12 12 12 12 12 12 12 13
16 17 16 16 15 15 15 15 16 15 16 14 15 16 16 15 15 15 15 15 14 15 15 15 15 14 13 13 12 13 13 14 14 13 15 14 14 12 14 13 13 13
17 16 14 14 13 13 14 14 14 15 16 14 15 14 15 16 15 15 16 15 16 16 16 15 14 13 13 12 12 13 13 13 14 14 15 14 14 12 12 12 12 14
16 13 13 13 13 13 13 16 16 15 14 13 13 13 15 16 17 15 14 15 15 16 15 15 15 15 13 12 14 13 12 10 11 12 12 13 11 12 11 10 10 11
14 13 13 12 13 12 13 15 15 14 15 15 13 13 13 14 15 16 17 16 16 15 15 15 15 15 13 13 13 13 13 11 9 10 10 11 11 11 12 11 10 10
12 11 11 12 12 13 14 14 16 15 15 16 16 13 15 13 14 16 17 17 17 17 16 15 15 15 15 14 15 14 13 14 12 10 10 10 10 11 12 11 10 9
10 11 11 12 13 13 14 15 16 17 15 17 16 17 15 16 15 15 16 17 17 18 18 17 16 16 15 14 13 12 12 12 12 12 10 10 9 8 4 9 10 9
11 11 12 13 14 15 14 15 16 16 17 16 17 18 18 16 17 16 16 17 17 17 18 18 17 16 16 16 15 14 13 12 11 12 12 12 12 11 11 10 9 9
12 12 12 13 14 15 15 17 16 15 17 17 17 17 18 18 17 17 16 17 18 18 18 18 18 17 16 15 15 15 14 13 12 12 11 11 11 12 12 13 13 13
9 9 11 14 14 15 17 17 17 18 17 16 17 17 18 19 19 19 18 18 18 18 18 17 16 16 16 16 14 14 13 13 13 12 12 12 12 13 13 14 15 16
8 8 10 12 14 15 16 17 17 18 18 19 19 18 18 19 20 22 22 21 20 18 17 15 14 14 14 15 15 14 13 12 12 12 12 13 13 14 14 15 15 15
10 8 10 11 12 13 14 14 16 17 18 19 19 20 19 19 19 19 21 21 21 19 17 15 14 14 9 8 4 10 10 11 12 13 14 14 14 15 15 15 15 16
9 8 8 10 11 12 12 14 15 14 16 18 18 18 17 17 18 19 20 20 20 18 18 16 15 13 15 14 12 7 8 9 11 12 12 13 15 15 15 16 16 17
10 11 10 10 11 12 12 14 14 15 16 17 17 17 17 17 18 20 21 20 21 21 19 18 16 10 15 15 14 13 8 10 9 11 11 13 14 15 16 17 16 15
11 10 11 11 12 13 12 13 14 15 16 17 18 17 18 20 21 21 22 22 22 22 22 19 15 14 17 14 15 16 14 11 11 10 12 13 13 15 16 19 17 12
10 10 10 11 12 13 13 14 14 14 13 14 16 17 18 19 19 21 21 23 23 23 23 20 21 14 15 14 15 17 15 10 14 13 14 15 15 16 17 16 12 12
12 10 9 10 11 12 14 15 16 15 16 16 17 16 17 18 19 19 20 21 21 21 21 21 18 13 16 11 10 13 13 7 12 11 14 16 17 13 13 11 10 9
13 13 12 11 11 11 13 14 15 17 17 16 16 16 16 17 18 19 19 19 19 18 18 19 16 12 14 13 12 13 17 14 15 15 14 13 11 11 11 11 10 9
13 13 12 13 12 13 13 12 13 14 14 15 16 17 18 18 18 19 19 18 17 16 18 18 15 9 7 11 12 14 13 19 18 18 16 14 12 11 12 12 11 10
13 13 13 12 13 14 14 13 13 13 13 13 14 14 15 16 16 18 18 17 17 17 18 17 14 13 12 12 15 18 15 19 19 19 17 16 15 12 13 15 16 16
16 15 14 14 14 14 14 16 15 15 14 13 14 14 13 13 14 15 15 15 16 17 5 15 15 12 11 11 13 16 14 16 16 18 17 17 17 16 15 15 15 14
15 15 15 15 15 14 14 15 16 16 14 15 15 16 15 15 16 15 15 15 16 18 20 19 17 15 14 11 12 11 8 13 16 16 17 17 16 18 17 16 17 17
Wind_Speed
7 6 6 6 5 6 6 6 5 5 5 5 5 5 5 4 3 4 5 5 5 5 5 5 4 4 4 4 2 4 4 4 4 4 5 5 5 6 4 4 4 4
6 5 5 5 6 6 5 5 5 5 6 5 5 5 5 5 4 4 6 6 6 6 5 5 4 4 3 4 3 3 4 4 4 3 4 4 4 4 4 5 4 4
7 6 7 7 6 7 7 7 6 5 5 5 6 6 6 5 5 5 6 6 6 6 6 5 4 4 3 4 3 3 4 4 4 3 3 4 3 4 4 4 4 4
9 7 7 7 7 8 6 5 6 6 6 6 6 6 6 5 6 6 7 7 6 6 6 6 5 4 4 4 3 4 4 4 4 4 4 4 4 4 4 4 5 5
8 7 6 6 6 8 8 7 7 6 7 6 6 7 7 6 6 6 6 7 6 6 6 6 6 6 5 4 4 5 5 5 4 4 4 4 4 4 4 4 5 5
8 8 7 7 7 7 7 7 7 7 8 7 7 7 7 7 6 7 7 7 6 6 7 7 7 6 6 6 5 5 5 5 5 6 6 6 6 5 4 5 5 5
9 8 7 6 6 6 7 7 7 7 7 6 7 6 7 7 7 7 7 7 8 7 7 6 7 6 5 5 5 5 5 6 6 6 6 6 6 5 5 5 5 6
8 6 6 5 7 6 6 7 7 7 7 6 6 6 7 7 8 7 6 7 7 7 7 7 6 6 5 5 5 5 5 3 4 5 5 6 4 5 4 3 3 4
7 6 6 6 6 6 6 7 7 7 7 7 6 5 6 6 7 8 8 8 7 7 7 7 7 7 5 5 5 5 5 4 3 3 4 4 4 4 4 4 3 3
5 5 5 5 6 5 6 7 7 7 7 7 7 6 6 5 6 8 8 8 8 8 7 7 7 6 6 6 6 6 5 6 5 3 3 3 3 4 4 4 3 3
4 4 4 5 5 5 7 7 8 8 7 8 8 8 7 7 6 7 8 8 7 9 8 8 7 7 7 6 5 5 5 5 5 5 4 3 2 2 2 2 3 3
4 4 5 5 6 6 7 7 7 8 8 7 8 8 9 8 8 7 7 8 8 8 9 9 8 7 7 7 7 6 5 5 4 5 5 4 5 4 4 3 3 2
4 5 5 5 6 7 6 7 7 8 8 8 8 8 9 8 8 8 7 8 9 9 9 9 9 8 7 7 7 6 6 5 5 4 4 3 4 5 5 5 5 5
2 2 3 5 5 6 7 7 7 7 8 8 8 8 9 9 10 9 9 8 8 9 9 8 8 8 8 7 6 6 5 4 4 4 4 5 5 5 6 6 7 7
0 1 2 3 4 6 7 7 7 7 8 8 9 8 7 9 10 11 11 10 9 9 8 7 6 6 6 7 7 6 4 4 3 3 4 4 5 5 6 6 6 6
1 1 2 3 4 5 5 6 7 7 8 9 9 9 8 8 9 10 10 10 10 9 8 7 6 5 5 6 3 4 4 3 3 4 5 5 5 5 5 5 6 6
1 1 1 3 3 4 4 5 6 6 7 8 8 8 8 7 8 9 9 9 9 9 9 7 6 5 10 11 9 5 3 2 2 3 3 4 5 4 4 5 6 7
2 1 2 2 3 3 4 5 5 5 6 7 7 8 7 7 8 9 9 9 8 9 8 8 7 10 12 11 12 11 7 4 3 2 2 4 5 5 6 5 4 6
1 1 2 2 3 4 4 4 6 6 6 7 8 8 7 9 10 10 10 10 10 11 10 8 7 12 15 12 11 12 11 7 4 4 4 3 5 5 3 5 9 4
2 1 2 2 3 4 4 5 6 6 5 6 6 7 9 9 10 11 11 11 11 11 11 9 9 12 13 12 11 11 11 7 4 4 2 3 5 5 7 8 4 3
4 2 2 2 3 3 4 6 6 6 6 6 6 6 7 7 9 10 9 10 10 10 10 9 8 12 14 10 9 11 10 7 5 4 1 4 7 4 4 4 3 3
4 4 4 4 3 3 4 5 7 7 8 7 6 7 7 7 7 7 8 9 9 8 9 9 5 11 12 11 10 10 11 5 6 5 5 5 4 4 4 3 3 3
4 4 4 5 5 5 5 4 5 6 6 6 6 7 7 8 8 8 7 7 7 7 8 8 6 6 7 9 10 11 9 8 8 6 6 7 5 4 4 4 3 1
5 5 5 4 5 6 6 5 5 5 5 5 5 5 6 7 7 7 7 6 7 7 8 8 6 8 10 9 11 15 12 8 8 8 8 7 6 5 5 5 7 12
7 6 6 6 6 6 6 7 7 6 5 5 5 5 5 5 6 6 6 6 6 8 3 7 6 7 9 10 11 14 10 6 6 7 7 7 7 7 6 6 6 8
6 7 7 7 7 6 6 6 7 6 6 6 6 6 5 6 5 5 6 6 6 8 7 8 7 7 8 10 11 10 8 3 7 7 7 8 7 8 7 7 7 7
Wind_Direction
173 160 157 157 157 148 151 144 136 140 127 136 136 137 124 109 104 96 100 95 88 85 81 78 80 82 93 94 66 104 84 75 74 84 88 95 99 106 108 95 72 79
163 161 149 158 152 147 142 141 143 140 126 133 134 130 118 120 114 111 107 109 102 92 88 86 84 86 91 92 81 85 89 85 86 81 91 95 106 97 84 84 88 92
162 156 155 166 153 151 152 148 144 132 129 132 135 137 129 126 125 118 114 105 103 99 94 92 92 89 89 89 86 85 88 92 85 75 72 69 63 83 88 91 90 87
161 164 164 163 158 147 139 152 142 135 135 146 155 142 140 139 134 129 121 119 112 108 102 102 102 104 100 102 109 98 99 99 84 88 94 92 91 93 91 98 105 103
163 167 163 157 156 149 159 159 149 146 146 156 155 153 151 150 149 139 133 125 122 118 115 111 110 109 117 114 114 112 118 112 114 113 104 101 94 94 104 108 106 105
170 178 169 163 154 160 155 155 151 153 154 166 165 163 155 159 155 147 141 137 131 125 125 120 119 118 116 120 124 123 132 124 120 127 122 119 121 125 122 119 119 116
176 179 163 156 153 162 151 152 150 156 163 169 167 169 158 161 157 154 149 145 141 141 134 130 123 122 121 122 120 122 116 121 137 135 132 127 125 129 131 142 131 120
180 172 165 160 151 156 153 150 151 162 161 168 173 171 168 162 157 153 153 152 148 142 141 135 133 123 131 124 120 119 116 121 135 138 123 119 137 130 119 112 132 131
180 176 177 160 154 156 154 155 155 158 167 164 178 173 180 172 157 161 160 155 151 150 147 146 143 139 136 137 132 138 133 129 126 120 126 135 143 137 139 120 130 125
181 166 167 167 171 173 162 162 162 162 173 174 172 179 183 179 168 172 166 163 158 156 154 155 151 150 152 152 148 143 148 145 149 146 151 158 154 158 145 153 150 156
171 170 173 179 194 201 188 172 166 164 173 181 176 176 183 180 184 182 175 170 166 164 158 159 159 159 156 154 148 160 156 154 164 161 162 171 166 148 145 187 166 189
187 191 194 198 209 218 202 189 177 173 171 183 184 182 176 183 186 186 186 175 175 169 162 161 160 159 162 163 159 165 168 170 174 171 181 183 177 197 190 196 214 205
205 211 213 222 219 217 203 197 191 183 180 184 186 186 178 178 185 185 188 186 178 170 169 166 161 163 159 159 163 164 166 165 170 174 178 185 191 197 200 202 209 207
223 232 237 229 229 216 208 207 200 200 202 192 189 191 192 188 181 187 184 190 176 175 169 165 162 163 161 162 165 158 160 168 173 186 194 190 200 211 208 210 211 211
73 64 260 235 227 225 214 208 209 213 219 213 204 202 202 202 194 187 185 186 176 174 165 163 168 164 162 163 162 164 170 179 191 208 223 225 222 221 219 222 225 220
18 184 225 229 226 224 223 225 226 223 219 216 213 212 206 210 205 197 192 185 176 172 163 161 170 174 131 98 85 145 171 186 192 226 239 246 249 253 243 233 234 230
348 304 229 223 223 225 217 226 226 221 220 220 219 218 212 205 205 194 192 190 187 173 169 170 175 176 154 160 157 166 183 184 229 237 247 246 251 249 248 252 238 229
4 336 276 262 245 237 237 239 237 233 231 232 230 226 217 213 210 209 206 207 211 203 189 183 186 142 174 180 173 169 183 183 201 232 246 264 264 257 251 258 267 250
323 296 288 254 240 244 240 246 238 231 233 230 232 234 234 231 226 222 224 220 219 223 221 201 188 161 182 189 174 171 174 178 182 204 213 224 244 246 281 273 247 224
35 356 306 285 271 256 242 233 235 225 223 229 235 235 234 235 233 230 231 231 229 232 231 222 222 173 185 194 178 170 165 175 172 175 204 260 251 229 226 235 245 235
356 3 332 328 304 281 260 247 235 225 219 221 223 228 231 234 236 233 231 229 229 229 231 214 212 155 189 198 166 161 158 177 148 122 139 241 248 247 242 234 226 217
351 340 325 303 284 269 257 248 242 239 231 220 231 233 227 226 227 229 227 225 224 223 228 223 178 162 174 175 161 153 152 151 153 151 186 217 211 208 196 181 179 176
347 333 325 303 295 285 273 264 249 237 236 233 229 230 229 224 229 229 227 223 217 215 208 210 158 136 161 165 164 164 173 170 166 159 161 186 179 157 142 99 77 83
331 325 317 310 286 275 272 268 258 247 242 225 231 228 224 223 221 223 224 222 214 212 204 204 164 159 171 176 175 180 209 171 164 167 167 156 144 128 110 93 56 21
319 318 313 310 305 294 284 268 253 248 244 231 227 226 218 214 209 208 208 207 209 208 159 206 177 143 166 178 189 193 226 168 171 151 155 149 141 129 116 110 93 56
309 306 305 300 299 304 299 284 267 249 232 230 228 226 203 202 198 205 192 197 183 198 183 204 157 153 157 172 188 201 243 239 162 159 151 148 148 137 130 115 108 99